Temp
74 79 76 68 53 54 52 59 69 68 67 69 73 71 68 70 67 57 76 80 83 79 79 78 78 78 78 78 78 77 77 77 77 77 77 77 78 77 77 77 77 77 77 76 76 76 76 76 76
73 77 69 63 50 48 53 64 64 64 67 71 73 74 71 63 72 72 71 78 82 81 80 78 78 78 78 78 78 77 77 77 77 78 77 78 78 76 76 76 76 76 76 75 75 75 75 75 75
76 79 60 55 52 48 53 61 61 67 70 69 68 73 69 64 72 69 77 79 81 82 80 79 77 77 77 77 77 77 78 77 77 77 76 77 76 75 76 76 76 75 74 74 75 75 75 75 76
69 65 63 51 52 59 58 59 63 66 68 70 67 63 70 74 72 73 76 78 78 83 81 77 77 76 76 76 76 76 76 77 76 76 76 76 76 76 76 75 74 73 73 74 74 75 75 76 74
68 62 50 51 54 60 61 63 64 62 64 65 65 62 65 73 75 75 74 76 76 83 82 77 77 76 76 76 76 75 76 77 76 76 76 76 76 75 75 73 73 73 73 74 74 75 76 74 74
58 59 48 47 55 61 62 62 62 61 64 65 62 61 62 72 71 72 74 75 75 77 77 77 75 75 75 75 75 75 76 76 76 76 76 76 75 75 73 73 73 73 73 74 75 75 74 73 73
55 53 49 51 54 56 59 64 58 58 59 61 64 56 63 69 71 72 71 73 72 75 77 75 75 75 74 74 74 75 75 75 75 76 75 74 74 73 73 72 73 73 73 74 75 73 73 72 72
58 54 50 49 50 52 59 61 63 58 58 68 66 56 56 65 72 72 70 68 71 72 73 72 73 73 73 73 73 73 73 73 74 74 72 70 71 71 72 71 72 73 73 73 73 72 73 71 71
62 48 47 50 52 53 62 57 64 66 60 63 66 65 68 71 72 69 66 66 65 69 71 71 70 72 73 73 72 72 72 72 72 70 68 68 65 66 67 68 70 72 72 73 72 72 70 69 68
54 48 50 56 56 54 58 57 58 57 58 59 63 69 71 71 68 65 64 62 61 65 68 69 69 70 72 74 72 71 72 72 70 69 68 65 65 64 68 66 68 70 71 71 71 70 68 67 61
55 49 57 59 60 59 56 56 61 55 52 59 58 63 67 66 65 64 65 64 64 63 66 68 69 69 69 72 71 71 71 71 70 69 65 65 65 64 64 60 61 60 65 66 64 63 61 61 61
51 57 58 59 60 57 54 58 55 56 56 63 63 65 64 63 62 62 63 65 65 64 64 66 67 66 68 69 70 72 70 70 68 67 66 63 62 61 63 61 60 60 60 59 59 58 60 62 63
53 56 59 60 58 57 59 54 54 55 61 63 65 65 62 62 63 64 65 66 65 64 64 64 66 65 67 66 67 70 70 71 70 68 67 63 62 60 61 63 64 61 60 60 58 59 61 62 63
54 56 56 58 57 58 55 53 55 57 63 64 64 61 62 62 63 63 64 64 66 67 65 62 64 65 67 66 67 70 70 73 71 69 66 64 62 61 61 60 60 61 61 60 60 60 60 60 61
56 49 54 55 56 54 54 50 51 58 62 61 61 62 62 63 64 63 64 64 65 66 67 64 62 64 64 65 66 65 70 69 71 69 65 64 62 61 60 59 58 59 60 60 60 61 60 59 61
50 49 43 54 55 53 50 41 55 60 59 57 60 61 61 61 62 64 64 64 65 65 66 66 67 63 64 65 64 64 65 64 66 69 68 64 63 62 60 59 58 59 59 58 57 57 56 57 57
47 38 44 48 56 53 49 43 54 60 60 55 57 58 60 61 63 64 64 64 64 64 64 64 64 63 63 65 64 63 62 62 60 59 63 63 63 62 60 59 59 59 58 57 58 55 55 54 55
36 38 43 43 50 50 46 46 53 57 57 52 55 56 57 59 60 64 64 65 64 63 63 63 63 63 63 64 62 60 57 55 55 57 62 64 61 62 59 58 59 59 56 56 56 55 55 53 54
45 42 41 48 50 46 44 45 51 55 53 52 52 53 54 57 61 62 63 63 63 62 61 61 61 62 62 58 58 56 53 52 52 54 61 64 62 61 59 58 58 58 56 55 56 54 53 51 53
45 41 41 47 51 47 44 44 50 54 54 52 52 52 54 56 57 61 60 60 60 61 60 60 61 61 61 59 57 55 53 52 53 54 56 60 62 61 60 58 57 57 56 56 55 54 52 51 51
44 41 39 39 45 47 44 41 46 53 55 57 57 56 56 54 55 57 58 56 57 58 59 60 60 59 58 56 54 53 52 51 50 51 53 55 58 60 59 58 57 56 55 53 53 53 53 52 48
37 46 44 42 36 27 43 25 43 48 50 55 54 52 52 52 56 57 55 55 56 58 59 60 60 59 56 55 53 52 51 49 50 51 52 54 56 57 59 58 57 55 54 53 53 54 51 50 47
42 45 42 42 36 32 36 27 41 47 45 48 50 52 52 54 55 54 53 55 57 57 56 57 58 56 55 55 54 53 52 52 51 52 51 53 55 57 58 57 56 55 54 54 53 52 52 51 48
48 42 42 40 36 24 35 32 34 41 44 49 52 53 54 55 54 53 53 56 55 55 55 56 56 56 55 55 53 54 52 50 50 50 50 52 54 56 56 57 55 54 54 53 52 51 51 50 50
42 35 25 23 23 25 39 30 34 46 49 48 50 51 52 53 52 49 50 52 53 55 55 55 56 54 54 54 54 54 52 51 51 52 52 53 53 54 56 56 54 53 52 52 51 49 49 49 47
36 36 20 16 18 24 36 26 39 48 53 53 53 52 52 52 52 48 52 52 51 54 55 55 54 53 54 54 54 54 53 52 52 53 54 55 54 55 56 55 53 52 52 50 50 48 47 47 45
38 33 42 29 31 25 29 38 47 51 49 50 50 50 48 50 50 49 52 52 51 53 55 54 53 53 53 52 52 52 52 52 52 52 53 55 56 56 55 53 51 51 50 49 49 47 46 45 44
39 43 30 30 17 20 26 31 31 42 44 48 46 45 47 50 51 53 51 51 53 54 54 55 54 53 53 53 53 53 52 53 53 54 54 55 55 55 52 51 50 49 48 47 47 45 45 44 43
36 35 38 37 31 22 18 27 44 43 45 45 45 48 51 52 52 50 51 51 52 53 53 54 54 53 52 53 53 52 52 52 52 53 53 53 52 50 49 49 47 46 44 45 45 44 44 43 44
41 39 40 24 24 26 23 27 49 48 46 47 46 49 52 51 50 50 50 51 51 51 52 53 53 52 52 53 52 51 52 52 52 53 52 51 48 48 47 47 45 45 44 44 43 42 42 42 41
MSLP
1010.30 1009.29 1008.71 1008.66 1009.10 1007.84 1006.87 1005.75 1004.46 1003.95 1003.67 1004.67 1004.22 1004.20 1004.89 1005.30 1005.90 1007.25 1007.69 1007.63 1007.66 1007.94 1008.86 1009.65 1010.00 1010.27 1010.61 1010.86 1011.24 1011.72 1012.15 1012.47 1012.76 1013.24 1013.65 1013.85 1014.05 1014.55 1015.04 1015.32 1015.54 1015.76 1016.07 1016.30 1016.56 1016.78 1016.95 1017.09 1017.25
1010.22 1009.34 1008.91 1008.46 1008.56 1007.62 1006.55 1005.62 1005.50 1005.54 1005.55 1005.10 1004.72 1004.77 1005.01 1006.71 1007.23 1007.85 1008.23 1008.22 1007.77 1007.86 1008.77 1009.64 1010.05 1010.30 1010.67 1010.91 1011.35 1011.83 1012.41 1012.79 1013.03 1013.35 1013.76 1014.16 1014.42 1014.94 1015.32 1015.57 1015.80 1016.07 1016.34 1016.62 1016.83 1017.01 1017.17 1017.33 1017.49
1009.82 1009.17 1009.16 1008.43 1008.03 1007.41 1006.80 1006.81 1006.76 1006.20 1006.01 1006.08 1005.97 1005.88 1006.83 1008.02 1008.43 1008.74 1008.81 1008.42 1007.82 1007.76 1008.62 1009.56 1010.11 1010.39 1010.74 1011.06 1011.64 1012.20 1012.59 1013.03 1013.32 1013.75 1014.05 1014.37 1014.94 1015.33 1015.59 1015.84 1016.09 1016.43 1016.68 1016.88 1017.03 1017.25 1017.33 1017.45 1017.53
1009.62 1009.42 1009.25 1008.61 1007.88 1007.09 1007.33 1007.67 1007.68 1007.08 1006.63 1006.73 1007.23 1007.43 1008.16 1008.59 1008.76 1009.01 1008.84 1008.60 1008.01 1007.76 1008.38 1009.37 1010.18 1010.54 1010.97 1011.32 1011.74 1012.41 1012.94 1013.24 1013.57 1013.86 1014.38 1014.58 1015.08 1015.47 1015.80 1016.11 1016.51 1016.80 1017.03 1017.08 1017.25 1017.27 1017.42 1017.51 1017.87
1009.55 1009.40 1009.39 1008.88 1008.23 1007.75 1008.04 1008.40 1008.30 1008.14 1007.75 1007.86 1008.13 1008.27 1008.42 1009.00 1009.10 1008.98 1008.89 1008.80 1008.51 1007.75 1008.13 1009.14 1010.17 1010.72 1011.09 1011.51 1011.95 1012.59 1013.09 1013.40 1013.81 1014.12 1014.43 1014.86 1015.13 1015.63 1016.05 1016.51 1016.83 1017.09 1017.23 1017.38 1017.42 1017.51 1017.59 1017.92 1018.24
1009.64 1009.48 1009.21 1008.72 1007.96 1008.04 1008.52 1009.00 1008.99 1008.99 1008.74 1008.72 1008.74 1009.04 1008.87 1009.27 1009.23 1009.28 1009.10 1008.94 1008.87 1008.44 1008.35 1008.98 1009.92 1010.83 1011.22 1011.60 1012.12 1012.79 1013.20 1013.54 1013.91 1014.29 1014.56 1014.85 1015.34 1015.78 1016.35 1016.70 1016.99 1017.22 1017.37 1017.54 1017.53 1017.74 1018.07 1018.34 1018.66
1010.00 1009.62 1009.29 1008.84 1008.46 1008.49 1009.15 1009.56 1009.81 1010.11 1009.93 1009.62 1009.66 1009.55 1008.98 1009.22 1009.47 1009.49 1009.54 1009.39 1009.06 1009.09 1008.86 1009.25 1009.76 1010.64 1011.17 1011.45 1012.20 1012.87 1013.23 1013.61 1014.03 1014.32 1014.62 1015.11 1015.54 1016.03 1016.51 1016.86 1017.08 1017.28 1017.40 1017.61 1017.73 1018.08 1018.43 1018.88 1019.00
1010.65 1010.21 1009.59 1009.67 1009.69 1009.71 1010.06 1010.18 1010.24 1010.36 1010.30 1009.96 1009.63 1009.38 1009.04 1009.30 1009.51 1009.51 1009.69 1009.85 1009.50 1009.54 1009.62 1009.85 1010.22 1010.51 1011.13 1011.59 1011.73 1012.80 1013.28 1013.71 1014.16 1014.44 1014.81 1015.37 1015.87 1016.21 1016.61 1016.99 1017.20 1017.39 1017.50 1017.71 1018.01 1018.44 1018.81 1019.20 1019.31
1010.75 1010.68 1010.20 1010.25 1010.36 1010.37 1010.23 1010.63 1010.67 1010.58 1010.56 1010.21 1009.83 1009.66 1009.18 1008.99 1009.37 1009.72 1009.85 1010.18 1010.23 1009.93 1009.74 1010.13 1010.41 1010.76 1011.08 1011.52 1012.03 1012.52 1013.38 1013.85 1014.21 1014.73 1015.12 1015.58 1016.12 1016.40 1016.74 1016.99 1017.26 1017.52 1017.79 1017.92 1018.26 1018.68 1019.19 1019.50 1019.52
1011.17 1010.88 1011.08 1011.18 1011.19 1011.25 1011.17 1011.16 1011.09 1010.93 1010.59 1010.29 1009.69 1009.14 1009.12 1009.07 1009.45 1010.05 1010.20 1010.28 1010.34 1010.35 1010.20 1010.13 1010.53 1010.84 1010.92 1011.43 1011.97 1012.47 1013.20 1013.78 1014.32 1014.78 1015.29 1015.71 1016.01 1016.46 1016.78 1017.11 1017.37 1017.66 1018.01 1018.22 1018.52 1019.15 1019.44 1019.56 1019.78
1011.66 1011.61 1011.62 1011.42 1011.61 1011.94 1011.93 1011.76 1011.47 1011.25 1010.73 1010.26 1009.91 1009.63 1009.62 1009.74 1010.00 1010.27 1010.29 1010.16 1010.22 1010.06 1010.30 1010.29 1010.50 1010.88 1010.96 1011.33 1011.73 1012.15 1012.78 1013.54 1014.15 1014.71 1015.15 1015.53 1015.77 1016.38 1016.87 1017.31 1017.77 1018.03 1018.13 1018.45 1019.02 1019.31 1019.55 1019.66 1019.80
1012.20 1011.97 1011.98 1011.94 1011.93 1012.18 1012.21 1011.95 1011.67 1011.24 1010.86 1010.26 1010.02 1009.88 1009.88 1010.10 1010.28 1010.25 1010.21 1010.14 1010.10 1010.06 1010.07 1010.30 1010.51 1010.85 1010.82 1011.10 1011.42 1011.54 1012.13 1012.91 1013.82 1014.39 1014.91 1015.28 1015.73 1016.28 1016.85 1017.32 1017.87 1018.20 1018.41 1018.78 1019.21 1019.51 1019.60 1019.63 1019.79
1012.41 1012.38 1012.25 1012.05 1012.10 1012.14 1011.96 1011.89 1011.70 1010.95 1010.33 1009.87 1009.88 1009.95 1010.03 1010.12 1010.05 1009.85 1009.77 1009.77 1009.78 1009.94 1009.97 1010.06 1010.25 1010.49 1010.63 1010.99 1011.12 1011.25 1011.91 1012.14 1012.93 1013.81 1014.48 1015.10 1015.59 1016.35 1016.66 1017.12 1017.57 1018.03 1018.38 1018.73 1019.05 1019.33 1019.34 1019.65 1019.89
1012.95 1012.65 1012.31 1012.17 1012.18 1012.02 1011.96 1011.64 1011.60 1010.43 1009.88 1009.78 1009.69 1009.76 1009.66 1009.62 1009.59 1009.51 1009.44 1009.43 1009.53 1009.62 1009.63 1009.80 1010.00 1010.35 1010.73 1010.62 1010.75 1010.82 1011.04 1011.29 1012.11 1013.07 1013.93 1014.59 1015.37 1016.03 1016.51 1016.88 1017.30 1017.72 1018.08 1018.53 1018.80 1019.07 1019.50 1019.82 1020.04
1012.90 1012.71 1011.97 1011.93 1012.06 1012.14 1012.27 1011.05 1010.90 1010.07 1009.67 1009.63 1009.57 1009.41 1009.24 1009.11 1008.96 1009.02 1009.02 1009.03 1009.05 1009.19 1009.23 1009.32 1009.50 1009.72 1010.30 1010.30 1010.42 1010.65 1010.14 1010.82 1011.64 1012.42 1013.24 1014.28 1014.96 1015.59 1016.23 1016.75 1017.28 1017.63 1017.94 1018.33 1018.78 1019.09 1019.45 1020.00 1020.25
1012.83 1012.43 1012.03 1011.61 1011.88 1012.22 1012.41 1011.44 1010.09 1009.86 1009.70 1009.59 1009.40 1009.18 1008.84 1008.73 1008.63 1008.61 1008.58 1008.73 1008.70 1008.73 1008.94 1008.92 1009.22 1009.44 1009.80 1010.15 1010.29 1008.84 1010.63 1010.59 1011.52 1011.91 1012.64 1013.67 1014.84 1015.39 1016.01 1016.73 1017.27 1017.47 1017.86 1018.40 1019.04 1019.56 1019.92 1020.43 1020.83
1012.89 1012.74 1012.37 1011.97 1011.75 1012.04 1012.28 1011.40 1010.57 1010.08 1009.41 1009.38 1009.28 1008.94 1008.81 1008.71 1008.70 1008.68 1008.58 1008.62 1008.50 1008.51 1008.62 1008.76 1008.92 1009.19 1009.53 1009.85 1010.30 1010.45 1010.98 1011.97 1012.15 1013.16 1012.78 1013.24 1014.41 1015.38 1015.95 1016.58 1017.07 1017.47 1017.96 1018.46 1019.16 1019.84 1020.16 1020.73 1021.29
1014.03 1013.67 1013.14 1012.72 1012.26 1012.33 1012.21 1011.43 1010.57 1009.95 1009.20 1009.30 1009.25 1009.00 1009.01 1008.99 1008.88 1008.81 1008.73 1008.62 1008.46 1008.43 1008.32 1008.31 1008.50 1008.84 1009.32 1009.94 1010.39 1010.87 1011.95 1013.04 1012.81 1014.18 1013.56 1013.61 1014.91 1015.61 1015.75 1016.55 1016.97 1017.57 1018.31 1018.66 1019.24 1020.00 1020.56 1020.98 1021.48
1014.90 1014.49 1013.83 1012.80 1012.74 1012.68 1012.03 1011.31 1010.34 1009.57 1009.12 1009.20 1009.27 1009.31 1009.09 1009.03 1008.97 1008.97 1008.85 1008.64 1008.49 1008.31 1008.23 1008.24 1008.24 1008.62 1009.22 1010.23 1010.74 1011.60 1012.54 1012.88 1014.01 1014.27 1014.99 1013.71 1014.90 1016.42 1016.25 1016.53 1017.20 1017.65 1018.51 1018.68 1019.14 1020.01 1020.77 1021.48 1021.83
1014.96 1014.66 1014.03 1013.14 1013.01 1013.28 1012.11 1010.75 1009.76 1009.20 1009.05 1009.10 1009.26 1009.13 1009.08 1009.16 1009.15 1009.09 1008.96 1009.07 1008.81 1008.32 1007.92 1007.87 1007.94 1008.21 1009.06 1010.01 1010.88 1011.41 1012.49 1013.61 1014.56 1014.92 1014.65 1015.16 1014.34 1016.59 1016.54 1016.56 1017.45 1017.82 1018.54 1018.98 1019.22 1019.76 1020.87 1021.81 1022.12
1014.93 1014.76 1014.92 1014.95 1013.92 1012.86 1012.47 1010.66 1009.32 1008.91 1008.84 1008.81 1008.82 1008.78 1008.94 1009.25 1009.41 1009.17 1009.02 1009.10 1009.05 1008.47 1007.86 1007.51 1007.59 1007.98 1008.85 1009.86 1011.08 1012.00 1012.94 1013.94 1014.58 1015.35 1015.32 1015.86 1015.41 1016.05 1016.70 1016.84 1017.22 1017.92 1018.36 1019.08 1019.52 1019.95 1020.61 1021.79 1022.63
1015.40 1015.25 1015.41 1015.25 1015.06 1014.31 1013.29 1012.28 1009.77 1008.95 1008.68 1008.44 1008.59 1008.73 1008.89 1009.18 1009.16 1009.10 1009.08 1009.06 1008.79 1008.13 1007.57 1007.28 1007.25 1007.56 1008.56 1009.40 1010.67 1011.45 1012.15 1013.18 1014.10 1015.37 1014.92 1016.07 1015.22 1015.82 1017.11 1017.07 1017.29 1017.92 1018.57 1019.00 1019.55 1020.15 1020.59 1021.47 1022.56
1015.61 1015.58 1015.70 1015.56 1015.57 1014.97 1013.62 1013.25 1009.91 1008.77 1008.71 1008.54 1008.49 1008.73 1008.96 1009.07 1009.04 1009.02 1009.26 1009.02 1008.39 1007.74 1007.04 1006.78 1006.87 1007.54 1008.27 1009.02 1009.95 1011.10 1012.31 1012.90 1013.94 1014.62 1014.33 1014.83 1015.51 1015.84 1017.62 1016.94 1017.46 1018.05 1018.61 1019.14 1019.54 1020.15 1020.68 1021.41 1022.27
1016.07 1015.77 1015.43 1015.46 1015.75 1015.36 1013.91 1013.34 1010.82 1009.56 1009.05 1008.77 1008.75 1008.92 1008.91 1009.10 1009.01 1009.14 1009.19 1008.90 1008.37 1007.57 1006.65 1006.51 1006.84 1007.63 1008.06 1008.78 1009.65 1010.45 1011.50 1012.34 1013.28 1014.18 1014.38 1014.97 1014.35 1016.19 1017.59 1017.36 1017.66 1017.96 1018.56 1019.00 1019.57 1020.08 1020.37 1021.11 1021.85
1016.35 1016.20 1016.36 1016.62 1016.33 1015.17 1014.10 1013.44 1010.91 1009.54 1008.83 1008.82 1008.98 1009.10 1008.99 1009.10 1009.10 1009.37 1009.24 1008.96 1008.46 1007.71 1006.73 1006.61 1007.25 1008.07 1008.60 1009.17 1009.75 1010.09 1011.04 1011.54 1011.97 1012.84 1013.70 1014.33 1014.77 1015.39 1016.95 1017.12 1017.76 1018.44 1018.52 1019.16 1019.46 1020.18 1020.63 1021.20 1022.02
1016.51 1017.02 1017.58 1017.69 1017.33 1016.11 1014.50 1012.91 1010.06 1008.85 1008.67 1009.06 1009.16 1009.28 1009.27 1009.37 1009.34 1009.49 1009.36 1009.07 1008.66 1008.00 1007.46 1007.43 1007.73 1008.24 1008.79 1009.29 1009.76 1010.23 1010.99 1011.55 1011.98 1012.44 1012.96 1013.59 1014.42 1015.01 1016.36 1016.67 1018.01 1018.65 1018.55 1019.67 1019.82 1020.38 1021.11 1021.66 1022.43
1016.59 1016.79 1017.34 1017.61 1017.27 1016.67 1014.47 1011.98 1009.83 1009.22 1009.24 1009.36 1009.54 1009.79 1009.91 1009.77 1009.62 1009.54 1009.52 1009.21 1008.72 1008.18 1007.66 1007.64 1007.88 1008.28 1008.77 1009.28 1009.75 1010.31 1010.95 1011.47 1011.97 1012.76 1013.23 1013.76 1014.39 1015.40 1015.77 1016.78 1018.33 1018.96 1019.13 1019.94 1020.08 1020.86 1021.45 1022.31 1023.21
1016.76 1016.89 1017.15 1017.78 1017.72 1016.70 1014.44 1012.33 1010.55 1009.89 1009.73 1009.83 1009.83 1010.03 1010.20 1010.03 1009.97 1009.87 1009.63 1009.36 1008.92 1008.37 1008.03 1007.73 1007.94 1008.21 1008.67 1009.17 1009.56 1010.11 1010.70 1011.35 1012.00 1012.51 1013.07 1013.80 1014.73 1015.39 1015.83 1017.33 1018.08 1018.76 1020.01 1020.07 1020.43 1021.50 1021.81 1022.55 1023.63
1016.79 1016.73 1016.75 1017.15 1017.69 1017.28 1015.77 1012.66 1010.38 1010.04 1009.81 1009.96 1009.94 1010.09 1010.13 1010.27 1010.25 1010.13 1009.84 1009.55 1009.21 1008.71 1008.26 1007.98 1008.06 1008.35 1008.77 1009.20 1009.63 1010.17 1010.82 1011.41 1011.91 1012.51 1013.28 1014.31 1014.92 1015.47 1016.28 1017.66 1018.32 1019.45 1020.59 1020.81 1021.09 1022.00 1022.27 1022.81 1023.90
1016.03 1016.17 1016.34 1017.03 1017.45 1017.24 1016.45 1012.83 1010.15 1009.84 1009.75 1009.78 1009.93 1010.13 1010.29 1010.42 1010.49 1010.37 1010.10 1009.75 1009.43 1009.21 1008.80 1008.22 1008.20 1008.35 1008.68 1009.12 1009.80 1010.48 1010.90 1011.53 1012.17 1012.61 1013.79 1014.82 1015.62 1016.21 1017.30 1018.21 1019.08 1020.11 1020.93 1021.33 1021.64 1022.53 1023.13 1023.76 1024.65
Wind_Speed
15 11 4 2 1 3 7 9 9 10 6 6 7 5 4 12 8 5 4 10 8 18 16 14 17 16 16 16 15 16 14 13 16 15 13 13 16 14 11 11 12 12 12 12 11 11 11 12 11
9 13 2 4 2 5 6 7 6 10 6 8 9 8 3 7 9 6 6 13 8 16 15 13 16 16 15 16 15 14 12 11 11 11 10 8 10 12 10 12 12 12 12 11 11 11 11 12 12
9 5 2 3 4 6 5 11 11 7 8 9 7 6 6 4 9 3 7 11 14 15 16 13 16 16 15 16 17 14 12 12 13 12 12 12 10 11 11 11 12 12 11 11 12 11 13 13 13
3 1 4 3 8 3 6 9 9 10 6 8 8 3 6 6 3 7 6 8 12 13 16 18 17 16 17 16 19 15 13 13 14 13 12 13 12 11 11 12 12 12 11 12 12 12 13 14 16
3 3 1 2 9 1 10 9 9 8 5 7 7 7 5 7 9 9 6 8 10 3 14 18 17 17 18 16 18 15 14 14 14 14 14 13 13 12 11 12 11 11 11 12 13 14 14 14 14
3 2 3 6 8 6 9 9 8 6 9 9 5 9 2 10 10 9 8 8 8 10 15 15 20 17 17 16 15 13 13 14 14 14 14 14 13 13 12 12 12 12 12 12 13 14 15 15 11
3 1 4 6 7 6 6 8 7 7 8 4 6 5 3 12 8 8 9 8 7 8 7 12 15 15 16 18 17 14 14 13 13 14 14 12 13 13 13 12 12 13 13 13 15 15 16 12 10
3 2 3 5 6 4 5 3 3 1 6 10 4 4 4 7 7 6 6 7 8 5 6 8 9 12 12 11 21 13 13 13 13 12 12 13 12 12 12 11 12 13 15 14 16 16 15 11 9
2 3 3 5 5 6 7 7 5 6 6 7 7 8 10 7 6 7 5 2 4 6 6 5 9 11 11 11 11 15 14 12 11 12 14 12 5 6 8 9 11 12 13 14 16 16 14 10 7
4 2 6 4 6 7 9 8 8 6 7 7 9 6 4 7 8 7 6 5 2 1 6 5 6 7 12 9 11 10 10 6 6 8 8 5 7 6 8 9 11 13 11 13 16 15 14 8 3
6 4 5 3 6 6 8 9 9 9 6 9 9 9 8 6 7 7 8 5 7 4 2 4 6 7 10 9 9 7 6 6 6 10 7 6 6 6 6 4 4 4 7 5 8 7 4 6 4
4 2 3 5 5 6 8 9 7 9 9 8 9 8 5 6 6 7 7 6 6 7 3 3 5 7 8 7 9 10 9 8 7 8 9 4 5 6 6 4 5 4 4 6 5 3 5 7 5
2 7 6 6 7 7 6 7 9 12 11 5 4 6 6 8 9 9 8 7 6 6 6 5 6 7 10 10 8 8 10 11 10 10 9 5 5 5 5 5 6 5 5 5 5 4 5 5 6
5 6 8 4 6 5 7 10 6 6 8 7 6 6 8 9 8 6 7 7 6 7 7 8 7 6 10 11 13 10 11 11 10 10 8 9 6 5 5 5 5 5 5 4 5 5 4 5 6
5 5 6 7 1 3 6 7 7 7 4 7 8 8 8 7 8 8 7 8 8 6 7 6 8 9 10 10 9 4 10 7 9 9 10 9 8 7 6 5 5 5 4 6 5 5 5 5 5
4 3 3 7 5 4 2 7 10 4 9 6 7 7 6 4 3 5 4 5 7 6 7 7 6 8 9 8 5 2 4 4 5 10 10 10 9 8 6 5 5 5 5 5 5 5 5 5 5
5 4 7 7 6 2 4 11 7 16 8 5 7 6 5 6 8 6 6 6 6 7 7 6 6 9 9 6 4 4 3 3 5 5 5 9 10 7 6 5 5 6 5 5 5 3 5 5 4
6 5 7 8 3 4 9 16 10 14 6 4 7 7 7 6 4 5 8 7 6 6 7 7 6 8 8 6 4 5 10 7 6 4 2 6 4 6 7 5 6 6 5 5 5 6 4 4 5
6 7 10 10 4 10 6 16 13 9 2 6 6 5 5 6 7 8 7 8 7 6 7 7 7 6 7 4 5 5 6 12 4 4 4 8 6 3 6 5 6 6 5 6 7 5 7 3 5
7 10 9 6 3 11 9 21 14 8 5 2 4 4 6 7 8 7 7 9 11 8 7 8 8 7 8 7 4 5 10 8 7 5 5 3 10 4 5 7 5 6 5 6 5 6 5 4 4
7 5 6 7 14 8 7 7 4 5 5 7 8 3 5 6 8 7 7 8 10 11 9 7 8 9 11 13 10 9 9 8 9 5 7 4 6 2 3 6 6 6 6 5 5 6 9 8 3
5 6 8 10 7 4 6 5 6 8 7 8 6 4 5 6 7 6 6 11 11 12 11 8 7 13 14 17 15 19 14 14 10 11 9 6 7 6 5 6 6 6 5 7 5 6 5 5 4
7 11 10 6 5 5 2 2 7 1 1 5 5 5 5 6 6 6 7 10 13 10 10 7 5 13 16 15 16 14 12 9 10 10 13 12 8 7 4 5 6 7 6 6 7 7 7 4 4
9 8 10 5 3 1 3 4 7 2 4 6 6 7 6 8 7 6 6 11 11 12 8 6 10 12 14 14 16 16 17 16 14 13 11 9 10 8 6 7 6 6 8 9 7 6 8 6 5
6 7 4 5 2 4 6 2 10 9 5 2 5 8 8 7 7 6 8 11 12 14 6 5 9 8 10 12 14 15 16 20 21 19 14 15 11 11 10 11 10 8 7 7 7 6 7 6 7
3 4 4 3 3 5 4 6 7 1 7 7 7 8 9 9 7 6 9 10 10 11 1 6 7 8 8 10 11 11 14 10 11 14 12 11 9 12 12 10 7 7 9 8 8 7 7 8 7
2 1 4 3 6 2 6 7 5 6 6 8 8 8 9 8 7 7 8 9 10 9 8 6 8 9 9 10 9 11 12 13 13 13 11 9 12 11 13 13 11 8 10 9 10 8 9 9 7
3 3 0 2 3 5 7 7 3 7 7 7 6 7 7 7 8 10 5 8 9 9 8 5 6 9 10 11 11 11 11 12 12 11 13 13 11 12 14 12 12 12 10 10 12 10 10 11 6
2 3 4 2 2 3 4 7 3 3 3 6 5 5 8 11 9 9 6 6 8 9 7 2 5 8 9 10 10 11 10 11 12 11 9 8 10 12 13 13 12 12 10 9 12 10 10 11 9
2 5 2 4 5 3 3 10 7 6 1 4 6 6 6 5 6 8 8 6 7 8 10 4 3 6 9 9 9 8 11 11 10 10 11 12 12 13 14 14 14 13 11 10 11 10 9 11 9
Wind_Direction
312 302 298 316 228 223 242 237 246 313 56 8 323 347 48 32 28 75 50 4 359 133 150 162 166 165 162 156 137 122 125 129 129 125 127 124 122 113 123 119 116 114 112 113 115 118 121 123 122
303 293 262 264 229 236 232 269 356 49 44 346 348 347 272 82 15 67 21 332 316 138 146 169 173 163 161 139 127 125 133 137 133 137 127 132 116 117 135 125 121 117 115 114 116 118 118 124 127
267 267 281 208 207 243 263 47 23 10 57 32 3 1 40 13 45 32 352 322 307 141 147 167 176 165 148 140 137 142 156 150 145 141 136 132 140 137 137 131 121 117 115 117 117 122 124 129 125
327 261 288 287 276 279 70 41 9 351 59 46 16 54 96 73 57 2 356 315 302 146 154 153 171 163 153 148 139 146 157 157 148 144 142 141 144 144 134 121 121 121 123 125 121 127 126 123 109
218 258 277 233 272 277 83 40 7 340 16 352 12 1 87 83 58 5 24 336 330 194 143 147 159 164 149 150 135 149 164 161 152 148 150 148 144 138 136 127 128 129 129 127 133 125 118 111 110
277 236 270 229 229 82 79 37 359 334 2 349 11 351 82 77 47 5 35 353 345 333 141 147 151 160 151 142 134 159 167 163 159 156 155 153 149 145 136 137 135 134 133 132 138 126 115 105 113
284 277 277 338 337 40 49 18 32 7 319 3 346 328 307 57 51 16 39 355 349 20 132 149 151 156 154 145 145 170 164 160 163 164 159 146 150 144 142 142 141 139 135 137 131 116 110 114 111
298 295 299 82 8 47 98 16 113 316 309 348 303 257 299 32 16 33 53 23 341 2 339 157 151 153 153 156 149 160 154 154 172 160 141 122 138 140 142 144 143 142 134 137 123 118 123 115 107
264 284 26 38 355 359 15 9 327 356 273 268 251 285 301 324 24 5 14 14 10 332 330 297 154 162 155 153 156 148 151 165 155 126 122 122 129 140 138 135 142 134 137 138 127 128 120 111 104
5 315 24 7 343 341 336 339 328 307 315 312 288 251 319 356 11 349 311 308 199 298 312 296 176 188 156 159 157 149 154 158 139 132 135 160 147 148 129 120 118 125 138 142 129 130 136 118 120
331 16 17 344 6 346 319 304 331 313 281 284 326 331 335 348 333 313 311 274 286 161 204 321 203 197 167 168 166 154 153 162 145 148 161 187 145 122 125 117 112 113 119 122 114 147 170 141 150
279 113 321 315 333 322 301 299 289 269 271 301 307 295 295 316 297 291 288 290 302 317 165 216 195 209 169 170 175 166 162 165 165 166 182 173 134 133 137 134 139 143 132 131 146 182 193 149 171
336 352 314 302 319 301 302 283 278 288 275 267 1 332 288 254 248 251 258 268 238 264 247 193 190 210 185 174 203 171 175 172 171 160 178 142 134 138 146 160 149 164 148 157 173 177 120 133 115
338 298 281 279 289 309 325 297 321 276 314 325 319 283 270 271 282 288 282 260 261 261 250 201 186 190 191 196 191 189 174 177 166 157 165 138 145 155 163 149 145 153 146 164 151 136 133 123 107
271 286 256 204 277 325 340 291 192 256 325 316 304 311 299 272 268 261 252 252 248 255 268 202 193 183 196 216 205 205 182 174 158 157 146 144 146 158 141 135 134 150 147 141 127 118 110 99 106
234 219 297 158 173 149 27 270 345 339 313 321 309 280 275 304 302 290 291 290 286 258 246 272 193 185 196 204 206 197 227 142 168 156 155 138 144 153 140 135 139 146 126 120 113 117 107 111 110
230 317 335 343 190 219 153 287 284 301 290 285 288 287 348 8 10 8 349 330 291 258 248 226 254 187 186 202 175 121 50 277 70 357 144 134 143 149 131 133 138 129 118 112 119 104 118 112 101
335 330 337 296 58 2 295 276 295 296 280 271 275 9 356 358 340 355 343 338 301 299 290 224 223 185 173 186 125 105 93 61 57 114 269 98 118 144 132 128 130 125 129 128 123 131 120 127 130
308 289 292 293 70 317 276 289 283 291 183 243 27 314 321 351 5 358 343 321 298 276 271 259 217 195 156 120 143 128 137 118 81 31 297 86 103 140 123 122 132 133 140 148 141 127 124 95 113
274 270 289 328 346 329 304 293 279 248 186 138 265 285 16 2 352 332 347 346 328 301 260 243 231 189 147 145 111 115 136 116 108 134 81 60 107 136 128 129 140 139 134 136 129 124 114 98 96
304 324 360 297 323 276 308 279 189 149 166 199 239 90 36 23 333 321 347 334 316 300 279 242 216 159 143 123 113 109 105 110 124 128 113 136 109 80 124 136 138 137 125 130 120 122 129 144 71
298 24 330 312 343 296 31 288 314 174 207 186 227 62 29 357 307 313 358 326 311 298 276 257 222 154 145 141 141 148 152 154 160 166 146 149 120 121 171 142 124 118 121 125 127 129 120 118 133
264 348 292 281 298 338 157 105 271 43 166 359 7 14 19 317 310 351 353 314 306 302 273 243 188 158 150 150 154 158 158 151 155 158 141 145 133 123 203 132 133 127 127 125 127 132 135 133 144
298 289 287 201 219 358 103 82 282 19 32 352 4 340 324 303 339 27 342 321 315 311 281 242 150 162 152 154 161 165 162 154 154 160 154 156 144 141 171 128 106 108 128 130 136 136 135 135 118
320 320 338 347 338 237 158 321 244 285 49 10 346 327 328 341 350 18 344 335 323 328 2 85 129 137 155 165 171 168 167 165 162 163 163 158 162 144 152 138 139 146 133 130 124 116 107 113 111
296 335 136 261 296 286 328 224 250 114 68 46 11 353 348 344 343 17 350 329 324 327 24 100 118 140 154 171 170 169 168 173 165 169 163 160 155 144 144 127 123 121 116 116 111 103 101 100 102
350 46 354 290 261 255 235 250 308 77 34 23 354 355 348 338 342 12 339 335 328 335 322 150 151 151 161 157 153 156 163 169 167 162 161 155 143 147 136 128 130 121 116 119 105 100 99 90 85
253 333 169 237 311 303 293 305 251 20 8 332 356 0 344 325 349 336 333 335 334 329 333 174 166 164 162 164 164 166 163 165 164 160 155 146 150 140 127 129 125 116 111 109 107 107 104 104 102
189 240 214 186 219 251 311 264 84 36 328 312 12 4 341 341 342 346 335 339 341 336 333 284 170 162 161 165 162 159 155 150 148 139 133 138 120 119 113 117 106 105 106 103 107 106 107 103 101
279 278 287 116 289 235 173 266 258 163 250 36 23 15 9 3 347 351 343 342 353 348 341 303 186 170 165 153 144 145 142 139 140 138 116 113 115 109 114 112 108 110 107 97 92 92 88 98 96